Regional Weather Roundup
Issued by NWS

Home | Current Version | Previous Version | Graphics & Text | Print | Product List | Glossary On
Versions: 1 2 3 4 5 6 7 8 9 10 11 12 13 14 15 16 17 18 19 20 21 22 23 24 25 26 27 28 29 30 31 32 33 34 35 36 37 38 39 40 41 42 43 44 45 46 47 48 49 50
000
ASUS43 KLOT 171206
RWRIL

ILLINOIS REGIONAL WEATHER ROUNDUP
NATIONAL WEATHER SERVICE CHICAGO/ROMEOVILLE IL
700 AM CDT THU APR 17 2014

NOTE: "FAIR" INDICATES FEW OR NO CLOUDS BELOW 12,000 FEET WITH NO
SIGNIFICANT WEATHER AND/OR OBSTRUCTIONS TO VISIBILITY.

* THESE STATIONS ARE NOT UNDER NWS QUALITY CONTROL. THEY ALSO MAY NOT
  REPORT WEATHER SUCH AS PRECIPITATION OR FOG.

ILZ001-002-007-009-015-016-024-171300-
NORTHWEST ILLINOIS

CITY           SKY/WX    TMP DP  RH WIND       PRES   REMARKS
MOLINE         CLOUDY    41  34  76 W13       30.12R
6HR MIN TEMP:  41; 6HR MAX TEMP:  47;

STERLING*      CLOUDY    45  30  57 SW5       30.09R
SAVANNA*       CLOUDY    43  36  77 W9        30.08R
$$

ILZ003-004-008-010-011-017-018-171300-
NORTH CENTRAL ILLINOIS

CITY           SKY/WX    TMP DP  RH WIND       PRES   REMARKS
ROCKFORD       CLOUDY    41  30  65 S16       30.10R
6HR MIN TEMP:  40; 6HR MAX TEMP:  43;

FREEPORT*      CLOUDY    44  35  70 S17       30.07R
ROCHELLE*      MOCLDY    39  32  76 S10       30.09S WCI  32
DE KALB*       PTCLDY    36  29  76 S15       30.11R WCI  27
PERU*          PTCLDY    40  33  77 S8        30.12R
$$

ILZ005-006-012>014-019>023-171300-
NORTHEAST ILLINOIS

CITY           SKY/WX    TMP DP  RH WIND       PRES   REMARKS
CHICAGO-OHARE  MOCLDY    43  25  49 S13       30.12R
6HR MIN TEMP:  40; 6HR MAX TEMP:  44;

CHICAGO-MIDWAY MOCLDY    43  26  51 S13       30.14R
6HR MIN TEMP:  43; 6HR MAX TEMP:  44;

AURORA         PTCLDY    39  29  67 S13       30.12R WCI  31
6HR MIN TEMP:  39; 6HR MAX TEMP:  43;

LANSING*       CLOUDY    40  26  57 S10G17    30.16S
WAUKEGAN       MOCLDY    43  26  51 S12       30.11R
6HR MIN TEMP:  40; 6HR MAX TEMP:  43;

DUPAGE AIRPORT PTCLDY    39  28  64 S15       30.11R WCI  31
6HR MIN TEMP:  38; 6HR MAX TEMP:  43;

KANKAKEE*      PTCLDY    40  29  66 SE12G17   30.17S
WHEELING       CLOUDY    43  27  53 S16       30.13R
6HR MIN TEMP:  42; 6HR MAX TEMP:  44;

MORRIS*        PTCLDY    40  28  61 S9        30.14R
ROMEOVILLE*    PTCLDY    38  28  66 S13       30.14R WCI  31
NORTHERLY ISL    N/A     43  26  51 S13         N/A
$$

LMZ740>746-171300-
SOUTHERN LAKE MICHIGAN

STATION/POSITION SKY/WX   TEMP    WIND        PRES    VSBY  WAVE
                          AIR SEA DIR/SP/G                  HT/PER
                          (F)     (DEG/KT/KT) (MB)    (MI)  (FT/S)
WAUKEGAN HARBOR            43     180/ 15/ 18 1020.7S
HARRISON CRIB              42     170/ 23/ 26   N/A
BURNHAM HARBOR             43     180/ 10/ 15   N/A
CALUMET HARBOR             42     170/ 12/ 17 1021.5S
MICHIGAN CITY              40     130/ 14/ 19   N/A
$$

ILZ025>027-034>036-040-047-049-050-058-095>099-171300-
WEST-CENTRAL ILLINOIS

CITY           SKY/WX    TMP DP  RH WIND       PRES   REMARKS
QUINCY         CLOUDY    42  34  73 NW10      30.16R
GALESBURG*     CLOUDY    42  39  87 W10       30.14R
MACOMB*        MOCLDY    41  34  77 W7        30.17R
JACKSONVILLE*  CLEAR     42  31  64 S3        30.17R
PITTSFIELD*    PTCLDY    46  32  58 SW5       30.16R
$$

ILZ028>032-037-038-041>044-048-051>054-059>061-171300-
CENTRAL ILLINOIS

CITY           SKY/WX    TMP DP  RH WIND       PRES   REMARKS
PONTIAC        CLEAR     41  30  65 S13       30.14R
BLOOMINGTON    CLEAR     37  30  76 S14       30.17R WCI  28
DECATUR        CLEAR     41  31  67 S12       30.18R
PEORIA         PTCLDY    41  31  67 S7        30.14R
6HR MIN TEMP:  40; 6HR MAX TEMP:  47;

LACON*         PTCLDY    44  32  63 S9        30.13R
LINCOLN*       CLEAR     40  32  73 CALM      30.18R
SPRINGFIELD    CLEAR     44  30  57 S12       30.17R
6HR MIN TEMP:  44; 6HR MAX TEMP:  47;

TAYLORVILLE    CLEAR     41  32  70 S10       30.18R
$$

ILZ033-039-045-046-055>057-062-063-171300-
EAST-CENTRAL ILLINOIS

CITY           SKY/WX    TMP DP  RH WIND       PRES   REMARKS
CHAMPAIGN      CLEAR     40  30  67 S14       30.18R
RANTOUL*       CLEAR     37  30  76 CALM      30.19R
MATTOON        CLEAR     42  29  59 S10       30.20R
PARIS*         PTCLDY    38  31  75 SE7       30.22R WCI  33
$$

ILZ079-100>102-171300-
SOUTHWEST ILLINOIS

CITY           SKY/WX    TMP DP  RH WIND       PRES   REMARKS
ALTON          MOCLDY    36  32  87 S8        30.19R WCI  29
BELLEVILLE     PTCLDY    39  34  82 S7        30.20R WCI  34
CAHOKIA*       PTCLDY    41  32  70 S3        30.20R
SPARTA*        PTCLDY    37  32  81 SE6       30.23R WCI  33
$$

ILZ064>066-069>071-074>076-080>082-084>086-088>090-092>094-171300-
SOUTH-CENTRAL ILLINOIS

CITY           SKY/WX    TMP DP  RH WIND       PRES   REMARKS
CARBONDALE     CLEAR     33  31  92 SE5       30.24R WCI  29
6HR MIN TEMP:  32; 6HR MAX TEMP:  43;

CAIRO*         CLEAR     40  35  80 CALM      30.26R
MARION         PTCLDY    36  32  87 S6        30.25R WCI  31
MT. VERNON     CLEAR     30  21  69 CALM      30.24R
CENTRALIA*       N/A     38  32  77 CALM      30.22R
SALEM*         PTCLDY    42  32  68 SE5       30.22R
METROPOLIS*    CLEAR     38  34  85 CALM      30.26R
$$

ILZ067-068-072-073-078-083-087-091-171300-
SOUTHEAST ILLINOIS

CITY           SKY/WX    TMP DP  RH WIND       PRES   REMARKS
FAIRFIELD*     CLEAR     39  34  81 CALM      30.25R
HARRISBURG*    CLEAR     38  32  78 CALM      30.27R
ROBINSON*      CLEAR     37  32  83 CALM      30.25R
CARMI*         CLEAR     42  36  79 S5        30.26R
$$

ABBREVIATIONS USED IN REMARKS
   TC - TEMPERATURE IN CELSIUS
  WCI - WIND CHILL INDEX
   HX - HEAT INDEX
  VSB - VISIBILITY
$$




USA.gov is the U.S. government's official web portal to all federal, state and local government web resources and services.